Вернуться в каталог

STARLINK-2673

АктивенСвязьVLEO
NORAD 48649·PAYLOAD·🇺🇸 United States

Запущен May 26, 2021 с Cape Canaveral Space Force Station

Loading…

Ближайшие Пролёты (ближайшие 24 часа)

TLE

СвежийSource: CelesTrak SupGP

Эпоха: Sep 14, 2026, 20:00 UTC

1 48649C 21044M   26257.83381944 -.00028912  00000+0 -92977-3 0  2571
2 48649  53.1594 313.5853 0001175  81.8464 319.5057 15.31715540    16

Отслеживайте STARLINK-2673 в реальном времени с AllMySat

Download on the App Store